Wind_Speed
28 29 30 30 30 30 30 30 31 30 30 29 30 31 31 31 31 31 31 32 33 34 34 35 35 35 37 38 38 38 38 38 38 38 39 39 39 39 40 40 40 40 40 41
30 29 29 29 29 30 29 29 30 30 29 30 31 32 32 32 32 32 32 32 33 33 34 34 35 36 37 38 38 38 37 38 38 38 38 39 39 38 38 38 38 39 39 40
29 29 30 29 27 28 29 29 29 29 29 29 30 31 31 31 31 31 32 32 32 33 33 33 34 35 36 36 37 37 37 37 37 37 37 38 38 37 37 37 37 37 37 38
30 30 31 29 28 28 28 28 28 28 28 29 29 30 30 30 30 30 30 30 31 31 32 33 33 34 35 35 35 35 35 35 35 35 35 35 35 35 36 36 35 35 36 37
30 31 31 29 28 27 27 27 27 27 27 28 28 28 29 29 29 29 29 29 29 30 30 31 32 31 32 32 32 32 32 32 32 32 32 32 32 32 33 34 34 34 34 34
30 30 31 29 28 27 28 27 26 26 27 28 27 28 28 28 29 28 27 27 28 28 28 29 29 29 29 29 29 29 29 29 30 29 30 30 30 30 30 31 31 31 31 32
30 30 31 29 27 27 28 28 27 27 27 27 27 27 27 27 28 27 27 27 27 27 27 27 27 27 26 26 26 26 27 27 27 27 27 27 28 28 28 29 29 29 30 30
30 30 29 28 27 27 27 28 28 27 27 27 27 27 26 26 26 26 26 26 26 26 26 26 26 25 25 25 25 25 25 25 26 25 25 26 26 26 26 27 28 28 29 30
30 29 29 28 28 28 28 28 28 28 27 27 27 26 26 25 25 25 25 25 26 26 25 25 25 25 24 24 24 24 25 24 25 25 25 24 24 24 24 25 26 27 28 28
30 29 28 28 29 29 29 28 27 27 27 26 26 26 25 24 24 24 24 24 24 24 24 25 24 24 24 24 24 23 24 24 25 25 23 22 23 23 24 24 25 25 26 26
30 29 28 29 29 28 28 27 27 27 26 26 25 25 25 25 24 24 24 23 23 23 24 24 24 24 24 23 23 23 23 24 24 24 23 23 23 22 23 24 24 24 23 24
29 28 29 29 28 28 27 27 26 26 26 25 25 25 25 25 24 24 23 23 23 23 23 24 24 24 24 23 23 23 23 22 22 22 22 22 21 21 22 22 23 23 23 23
28 28 28 27 26 26 26 26 25 25 25 25 25 25 25 25 24 24 24 24 24 24 24 24 24 24 23 23 22 22 21 21 20 20 21 21 20 20 21 21 21 21 22 22
26 27 26 25 25 25 25 25 25 24 25 25 25 24 25 25 25 25 24 24 24 24 24 24 23 23 23 22 21 21 20 20 20 20 20 20 19 19 20 20 20 20 20 19
25 25 25 25 24 24 24 25 25 25 25 24 24 24 25 25 25 25 25 25 24 24 24 23 22 22 22 21 21 20 20 21 20 19 19 19 19 19 19 19 19 18 18 18
24 25 25 25 24 24 24 24 25 25 25 25 25 25 24 25 25 24 24 24 24 24 23 22 22 22 22 21 21 20 20 20 20 19 18 18 19 19 18 18 18 17 17 16
25 25 25 25 24 25 25 25 25 25 25 25 24 24 24 24 24 24 24 23 23 23 23 22 22 22 21 21 20 20 19 19 19 19 18 18 18 17 16 16 15 15 15 15
24 25 25 24 24 24 24 25 25 25 24 24 23 23 23 24 24 24 23 23 23 22 22 22 22 21 21 20 20 20 19 19 19 18 18 17 16 15 14 14 14 14 13 14
22 23 24 24 24 24 25 25 24 24 23 23 23 23 23 23 23 23 22 22 22 22 22 22 22 21 21 20 20 20 19 18 17 16 16 15 14 14 13 13 13 13 12 13
21 22 23 23 22 23 24 24 23 23 23 23 23 23 23 23 23 22 22 21 21 21 21 21 21 20 19 19 18 18 17 16 16 15 14 14 14 14 13 12 12 12 12 12
19 19 20 21 21 21 22 22 22 22 22 22 22 23 22 22 21 21 20 20 19 19 19 19 18 17 17 17 17 16 15 14 14 14 14 14 14 14 13 12 12 12 11 11
18 19 19 19 19 20 20 20 21 21 21 21 22 22 22 21 20 19 19 19 19 19 18 18 17 15 15 15 14 14 13 13 13 13 13 13 13 13 12 12 12 12 11 10
18 18 18 19 19 19 19 20 20 20 20 21 21 21 20 20 19 19 18 18 18 17 16 16 15 14 13 13 13 12 12 12 12 12 12 12 12 12 12 12 11 11 10 10
17 17 18 19 19 19 19 19 19 20 20 20 20 19 19 19 19 19 18 18 17 16 16 15 14 13 13 12 12 11 11 11 11 11 12 12 12 12 12 12 11 11 10 9
16 16 16 17 17 17 17 18 18 18 18 18 18 18 19 19 19 19 18 17 16 15 14 14 14 14 13 13 12 12 11 11 11 12 12 12 12 12 12 11 11 10 10 9
14 14 14 14 15 15 16 16 16 16 16 16 17 17 18 17 17 17 17 16 15 15 14 14 14 13 13 13 12 12 11 11 11 11 12 12 11 11 11 11 10 10 10 9
14 14 14 14 14 14 14 14 14 14 14 14 14 15 15 16 16 15 15 15 14 14 14 14 13 13 12 12 11 11 11 11 11 11 11 11 11 11 10 10 9 9 9 9
Wind_Direction
266 269 269 269 269 269 271 273 274 274 273 274 276 278 279 282 283 283 282 281 281 280 279 279 278 276 274 274 274 273 273 272 272 272 271 270 269 268 268 269 269 269 268 268
265 267 269 268 268 268 270 273 274 273 274 275 277 279 280 283 284 283 283 281 281 280 279 279 278 277 276 275 275 274 273 272 272 273 272 271 269 268 268 269 269 269 268 268
266 266 267 267 269 270 271 273 275 274 275 277 279 280 282 284 286 285 284 282 281 280 280 279 279 279 278 276 274 274 273 272 271 272 272 271 269 267 267 269 269 270 269 268
266 266 267 271 271 271 272 273 275 275 275 277 280 281 283 286 287 287 286 284 282 281 282 281 281 281 279 277 275 274 274 272 272 272 272 271 269 268 268 269 270 270 270 270
266 267 268 270 272 273 273 273 275 277 277 278 279 281 283 286 288 287 287 286 284 283 283 283 283 283 281 278 276 274 273 272 272 272 272 270 270 270 269 268 269 270 270 269
264 266 269 272 273 273 273 275 276 276 278 279 281 283 284 286 288 287 286 286 285 285 285 285 285 284 282 279 276 274 273 272 272 271 271 271 270 271 269 269 271 271 271 270
264 268 270 272 274 274 274 277 277 277 279 281 283 284 285 285 286 286 286 286 286 285 286 286 284 282 281 280 277 275 274 274 274 273 273 272 273 272 271 271 271 271 272 271
264 268 271 272 272 273 275 276 278 279 278 280 282 284 285 286 286 285 285 286 286 287 288 287 286 284 283 281 279 278 276 275 275 275 276 275 273 273 273 272 271 271 272 272
264 267 270 269 270 272 275 278 278 278 278 279 281 283 285 286 286 285 285 284 285 286 287 286 285 284 284 283 281 279 277 276 276 277 277 274 273 273 274 274 274 273 272 272
264 266 267 268 269 272 275 278 278 277 278 280 281 283 284 284 285 286 287 285 286 287 287 286 284 284 284 283 281 279 277 275 275 276 275 273 273 273 274 275 276 275 273 273
263 264 264 266 269 271 273 274 277 278 278 279 280 282 283 284 285 287 288 286 285 286 286 285 284 284 284 284 282 279 277 276 274 273 273 273 274 275 275 276 277 276 274 275
261 262 264 267 269 269 271 273 277 280 278 277 278 281 282 283 285 287 287 285 285 285 285 284 283 283 284 284 283 280 278 276 273 271 272 274 275 277 277 278 278 276 274 274
261 262 264 266 267 268 271 273 275 278 278 277 278 280 281 282 284 286 286 285 284 283 284 283 282 282 283 285 283 281 279 277 274 272 273 273 275 277 279 280 279 277 274 274
260 262 263 265 267 268 270 272 274 276 277 277 277 278 281 283 284 285 285 284 283 282 282 282 282 282 283 284 283 280 277 276 275 274 272 271 273 276 278 280 280 278 275 274
261 262 263 265 267 268 269 272 274 275 276 277 276 277 280 282 283 283 283 283 282 282 282 281 281 280 282 283 281 278 275 274 274 273 272 271 272 275 278 280 280 279 276 275
259 260 261 263 266 268 270 272 273 274 275 276 276 277 279 280 282 283 282 282 281 281 280 279 279 280 281 281 279 276 274 273 274 273 271 272 272 275 277 278 279 279 276 274
261 261 260 262 265 268 270 271 272 273 274 274 274 275 277 278 280 281 281 281 280 280 279 278 278 278 279 278 277 275 274 273 273 272 271 272 273 274 275 276 277 280 278 275
263 262 262 263 264 266 268 269 270 271 272 272 271 273 276 278 279 280 280 279 278 278 279 278 277 278 278 277 276 275 273 272 272 270 269 270 270 269 270 273 275 278 280 277
264 263 263 263 264 264 266 268 269 269 269 270 271 272 275 278 279 279 279 278 276 276 277 277 277 277 277 277 276 273 270 269 268 267 266 266 264 264 267 270 273 276 279 278
267 265 265 264 264 265 266 267 268 269 269 269 270 272 275 277 277 277 277 276 275 275 276 278 278 278 277 275 274 271 267 264 262 261 261 261 261 262 264 267 271 275 278 276
268 266 266 266 266 267 267 267 267 269 269 269 270 272 274 275 275 274 274 274 275 276 277 277 277 277 276 273 271 269 265 261 259 257 258 260 259 260 261 265 270 273 275 273
269 268 268 267 267 269 271 270 271 272 272 272 272 271 272 272 271 271 272 272 274 276 276 276 275 275 273 270 268 265 262 259 258 256 256 256 256 258 261 263 266 270 272 273
273 271 269 269 271 273 273 273 274 275 275 274 273 271 269 269 269 269 271 271 272 274 275 274 273 271 270 268 263 260 260 259 257 256 255 255 256 258 261 263 263 266 268 268
276 277 275 274 275 276 277 275 276 276 275 274 272 271 270 269 268 268 269 269 270 270 269 268 266 266 265 262 258 258 259 258 255 254 254 254 256 258 260 262 262 261 260 259
277 276 275 275 276 278 280 278 278 277 276 274 270 268 268 268 268 268 269 268 266 263 262 262 261 261 260 257 255 256 258 258 256 255 254 253 255 259 261 261 260 257 255 255
277 277 276 277 279 281 283 282 281 279 276 273 270 268 267 267 267 267 265 263 261 258 258 258 257 256 255 253 254 255 256 256 255 254 253 252 253 256 258 260 259 254 249 248
275 276 276 277 279 283 286 286 285 282 278 274 271 269 268 267 266 265 263 260 258 256 255 254 254 252 251 251 252 254 255 257 257 256 253 251 252 254 257 258 255 251 244 239
Height
5602 5602 5602 5602 5602 5602 5601 5601 5600 5601 5600 5600 5598 5596 5595 5594 5592 5591 5589 5588 5586 5585 5584 5583 5582 5581 5580 5579 5578 5577 5576 5575 5574 5573 5572 5571 5570 5570 5570 5569 5569 5569 5569 5569
5594 5594 5593 5593 5594 5593 5593 5592 5592 5591 5592 5591 5589 5587 5586 5585 5583 5582 5581 5579 5577 5576 5575 5573 5572 5571 5569 5568 5567 5566 5565 5564 5563 5562 5561 5560 5559 5559 5559 5559 5558 5558 5558 5558
5585 5585 5584 5585 5587 5586 5585 5585 5584 5583 5584 5582 5580 5579 5577 5576 5575 5573 5571 5570 5568 5566 5565 5563 5562 5560 5558 5557 5556 5555 5553 5553 5552 5550 5550 5549 5548 5548 5548 5548 5548 5548 5548 5547
5575 5577 5576 5581 5579 5578 5577 5577 5575 5574 5574 5573 5572 5570 5569 5567 5565 5564 5562 5560 5558 5557 5555 5553 5551 5549 5548 5546 5545 5544 5543 5542 5541 5540 5539 5539 5538 5538 5538 5538 5538 5538 5537 5537
5567 5567 5567 5571 5571 5569 5568 5568 5568 5566 5566 5565 5563 5562 5561 5559 5557 5555 5553 5551 5549 5547 5546 5543 5541 5539 5537 5536 5534 5533 5532 5532 5531 5530 5530 5529 5529 5529 5528 5528 5528 5528 5528 5527
5559 5558 5559 5564 5563 5561 5561 5560 5560 5558 5557 5556 5555 5554 5553 5550 5548 5546 5544 5543 5541 5539 5537 5535 5532 5530 5528 5527 5525 5524 5523 5523 5522 5521 5521 5520 5520 5520 5519 5519 5519 5519 5518 5518
5551 5550 5551 5554 5553 5553 5553 5554 5552 5550 5549 5548 5547 5546 5544 5542 5540 5538 5536 5534 5532 5530 5528 5526 5524 5522 5520 5519 5517 5516 5515 5514 5514 5513 5513 5512 5511 5511 5511 5511 5510 5510 5510 5509
5543 5543 5546 5546 5544 5545 5544 5543 5543 5541 5541 5540 5538 5537 5535 5534 5532 5530 5528 5526 5524 5522 5521 5519 5517 5515 5513 5512 5510 5509 5508 5507 5506 5506 5505 5504 5504 5503 5503 5502 5502 5501 5501 5500
5536 5538 5537 5536 5536 5536 5535 5535 5534 5533 5533 5531 5530 5529 5528 5526 5524 5523 5521 5519 5517 5515 5513 5512 5510 5508 5506 5505 5503 5502 5501 5500 5499 5498 5498 5497 5496 5496 5495 5494 5494 5493 5492 5492
5526 5528 5528 5527 5527 5527 5527 5526 5525 5525 5524 5523 5522 5521 5520 5518 5517 5515 5513 5511 5510 5508 5506 5505 5503 5501 5499 5498 5496 5495 5494 5493 5492 5491 5490 5490 5489 5488 5488 5487 5486 5485 5484 5484
5517 5519 5518 5518 5518 5519 5518 5518 5517 5516 5516 5515 5514 5513 5512 5510 5509 5508 5506 5504 5502 5501 5499 5498 5496 5494 5493 5491 5490 5488 5487 5486 5485 5484 5484 5483 5482 5481 5481 5480 5479 5478 5477 5476
5509 5510 5509 5510 5510 5510 5510 5510 5509 5508 5508 5507 5506 5505 5504 5503 5501 5500 5498 5497 5495 5494 5492 5491 5489 5488 5486 5484 5483 5481 5480 5479 5478 5478 5477 5476 5475 5475 5474 5473 5471 5470 5469 5468
5499 5500 5500 5501 5501 5501 5501 5501 5501 5500 5499 5499 5499 5497 5496 5495 5494 5492 5491 5489 5488 5486 5485 5483 5482 5481 5479 5478 5476 5475 5473 5472 5471 5471 5470 5470 5469 5468 5467 5466 5465 5463 5462 5461
5490 5491 5492 5493 5493 5493 5493 5493 5493 5492 5492 5491 5490 5490 5488 5487 5486 5485 5483 5482 5480 5479 5477 5476 5475 5473 5472 5471 5469 5468 5467 5466 5465 5465 5464 5463 5463 5462 5461 5460 5458 5457 5456 5455
5482 5483 5484 5485 5485 5485 5485 5485 5485 5485 5484 5483 5482 5482 5481 5480 5478 5477 5476 5474 5472 5471 5470 5469 5468 5466 5465 5464 5463 5462 5461 5460 5459 5459 5458 5457 5457 5456 5455 5454 5452 5451 5450 5449
5474 5475 5476 5476 5477 5477 5477 5477 5477 5477 5476 5475 5475 5474 5473 5472 5471 5469 5468 5466 5465 5464 5462 5461 5460 5459 5458 5457 5456 5455 5454 5454 5453 5452 5452 5451 5451 5450 5449 5448 5447 5445 5444 5443
5466 5467 5468 5468 5469 5469 5469 5469 5469 5468 5467 5467 5466 5466 5465 5464 5463 5462 5460 5459 5457 5456 5455 5454 5453 5452 5451 5450 5449 5448 5448 5447 5447 5446 5446 5446 5445 5444 5443 5443 5442 5440 5439 5438
5458 5459 5459 5460 5461 5461 5461 5461 5460 5460 5459 5459 5458 5458 5457 5456 5455 5454 5453 5451 5450 5449 5448 5446 5445 5445 5444 5443 5442 5442 5441 5441 5441 5440 5440 5440 5440 5439 5439 5438 5437 5436 5435 5434
5450 5451 5451 5452 5452 5452 5452 5452 5452 5451 5451 5451 5450 5450 5449 5448 5447 5446 5445 5444 5443 5442 5441 5439 5438 5437 5437 5436 5435 5435 5434 5434 5434 5434 5434 5434 5434 5434 5434 5434 5433 5432 5431 5430
5442 5443 5443 5444 5444 5444 5444 5444 5443 5443 5443 5443 5442 5442 5441 5440 5439 5438 5437 5436 5435 5434 5433 5432 5431 5430 5429 5429 5428 5428 5428 5428 5428 5429 5429 5430 5430 5430 5430 5429 5429 5428 5427 5427
5435 5435 5436 5436 5436 5436 5436 5435 5435 5435 5435 5435 5434 5434 5433 5433 5432 5431 5430 5429 5428 5427 5426 5425 5425 5424 5423 5422 5422 5422 5422 5423 5423 5424 5424 5425 5425 5425 5425 5425 5425 5424 5424 5423
5429 5429 5429 5429 5429 5429 5428 5428 5428 5428 5427 5427 5426 5426 5426 5425 5424 5424 5423 5422 5422 5421 5420 5419 5419 5418 5417 5417 5417 5417 5418 5418 5418 5419 5419 5420 5420 5421 5421 5421 5421 5421 5420 5420
5423 5422 5422 5422 5422 5422 5421 5421 5421 5420 5420 5419 5419 5419 5418 5418 5418 5417 5417 5416 5415 5414 5414 5414 5413 5413 5413 5412 5413 5413 5413 5414 5414 5414 5415 5415 5416 5416 5417 5417 5417 5417 5417 5416
5416 5416 5416 5416 5416 5416 5415 5414 5414 5413 5413 5412 5412 5412 5411 5411 5411 5411 5410 5410 5409 5409 5409 5408 5408 5408 5408 5408 5409 5409 5409 5409 5410 5410 5411 5411 5412 5412 5413 5413 5413 5413 5413 5413
5410 5410 5410 5410 5410 5409 5409 5408 5407 5407 5406 5406 5405 5405 5405 5404 5404 5404 5403 5403 5403 5403 5403 5403 5403 5404 5404 5404 5405 5405 5405 5406 5406 5406 5407 5407 5408 5408 5409 5409 5409 5409 5410 5410
5404 5404 5404 5404 5404 5403 5403 5402 5401 5400 5400 5399 5399 5399 5398 5398 5398 5397 5397 5397 5397 5398 5398 5398 5399 5399 5399 5400 5401 5401 5401 5402 5402 5403 5403 5403 5404 5404 5405 5405 5405 5406 5406 5407
5400 5399 5399 5399 5399 5398 5398 5397 5396 5395 5394 5394 5393 5393 5392 5392 5392 5392 5392 5392 5392 5392 5393 5394 5394 5395 5395 5396 5397 5397 5398 5398 5398 5399 5399 5400 5400 5401 5401 5401 5401 5402 5403 5404